This is the latest recevied weather packets stored in our database for station/object KN6CRX-10. If no packets are shown the sender has not sent any weather packets the latest 10 day(s).
| Time | Temp. | Humidity | Pressure | Rain* | Wind** | Luminosity | Snow |
|---|---|---|---|---|---|---|---|
| 1788284713 | 22.78° C | 48% | 1020.1 hPa | 0 mm | - | 754 W/m² | - |
| 1788284409 | 22.78° C | 51% | 1020 hPa | 0 mm | - | 687 W/m² | - |
| 1788284109 | 22.22° C | 53% | 1020.3 hPa | 1.27 mm | - | 707 W/m² | - |
| 1788283805 | 21.67° C | 54% | 1020.2 hPa | 1.27 mm | - | 648 W/m² | - |
| 1788283500 | 22.22° C | 56% | 1020.2 hPa | 1.27 mm | - | 314 W/m² | - |
| 1788283198 | 21.67° C | 56% | 1020.2 hPa | 0 mm | - | 670 W/m² | - |
| 1788282897 | 21.67° C | 56% | 1020.3 hPa | 0 mm | - | 582 W/m² | - |
| 1788282596 | 20.56° C | 58% | 1020.2 hPa | 0 mm | - | 378 W/m² | - |
| 1788282290 | 20° C | 59% | 1020.3 hPa | 0 mm | - | 271 W/m² | - |
| 1788281990 | 20° C | 59% | 1020.1 hPa | 0 mm | - | 220 W/m² | - |
| 1788281685 | 19.44° C | 63% | 1020.2 hPa | 0 mm | - | 192 W/m² | - |
| 1788281381 | 20° C | 59% | 1020.3 hPa | 0 mm | - | 165 W/m² | - |
| 1788281076 | 20.56° C | 59% | 1020.3 hPa | 0 mm | - | 156 W/m² | - |
| 1788280771 | 20° C | 61% | 1020.2 hPa | 0 mm | - | 135 W/m² | - |
| 1788280466 | 19.44° C | 64% | 1020.2 hPa | 0 mm | - | 133 W/m² | - |
| 1788280165 | 18.89° C | 65% | 1020.1 hPa | 0 mm | - | 129 W/m² | - |
| 1788279860 | 18.89° C | 67% | 1020.3 hPa | 0 mm | - | 126 W/m² | - |
| 1788279559 | 18.89° C | 64% | 1020.2 hPa | 0 mm | - | 125 W/m² | - |
| 1788279259 | 19.44° C | 65% | 1020.3 hPa | 0 mm | - | 57 W/m² | - |
| 1788278954 | 19.44° C | 64% | 1020.2 hPa | 0 mm | - | 116 W/m² | - |
| 1788278651 | 18.89° C | 69% | 1020.1 hPa | 0 mm | - | 127 W/m² | - |
| 1788278350 | 18.33° C | 70% | 1020.3 hPa | 0 mm | - | 120 W/m² | - |
| 1788278050 | 17.78° C | 72% | 1020.2 hPa | 0 mm | - | 52 W/m² | - |
| 1788277747 | 17.78° C | 72% | 1020.5 hPa | 0 mm | - | 57 W/m² | - |
| 1788277446 | 17.22° C | 75% | 1020.2 hPa | 0 mm | - | 45 W/m² | - |
* Rain latest hour (hover to see other rain measurements)
** Current wind speed in m/s (hover to see current wind gust speed)